Estación de La Cruz

Ultimos registro cada 15 minutos 27
Estación Fecha / Hora Temperatura Humedad Lluvia Velocidad Dirección Radiación Presion
27 La Cruz 04-05-2026 06:30 4,2 80,2 0 0 191 0,6 997,4
26 La Cruz 04-05-2026 06:15 5,2 78,7 0 0 191 0,6 997,2
25 La Cruz 04-05-2026 06:00 6 74,3 0 0 191 0,6 997,1
24 La Cruz 04-05-2026 05:45 5 79,1 0 0 191 0,6 997,2
23 La Cruz 04-05-2026 05:30 4,2 81 0 0 191 0,6 997,2
22 La Cruz 04-05-2026 05:15 4,9 79,5 0 0 191 0,6 997,2
21 La Cruz 04-05-2026 05:00 5,5 76,1 0 0 191 0,6 996,8
20 La Cruz 04-05-2026 04:45 6,5 72,8 0 0 191 0,6 996,7
19 La Cruz 04-05-2026 04:30 5,2 77,9 0 0 191 0,6 996,8
18 La Cruz 04-05-2026 04:15 4,7 78,5 0 0 191 0,6 996,9
17 La Cruz 04-05-2026 04:00 5,6 80,2 0 0 191 0,6 997
16 La Cruz 04-05-2026 03:45 4,7 79,3 0 0 191 0,6 997,2
15 La Cruz 04-05-2026 03:30 4,9 79,7 0 0 191 0,6 997,2
14 La Cruz 04-05-2026 03:15 5,1 79,3 0 0 191 0,6 997,2
13 La Cruz 04-05-2026 03:00 5,1 77,6 0 0 191 0,6 997,3
12 La Cruz 04-05-2026 02:45 5,9 76,6 0 0 191 0,6 997,3
11 La Cruz 04-05-2026 02:30 6,3 74,7 0 0 191 0,6 997,5
10 La Cruz 04-05-2026 02:15 6,2 75,2 0 0 191 0,6 997,8
9 La Cruz 04-05-2026 02:00 4,9 80,6 0 0 191 0,6 997,9
8 La Cruz 04-05-2026 01:45 5,3 81,8 0 0 191 0,6 998,2
7 La Cruz 04-05-2026 01:30 5,3 82,4 0 0 191 0,6 998,4
6 La Cruz 04-05-2026 01:15 5,6 83,1 0 0 191 0,6 998,3
5 La Cruz 04-05-2026 01:00 5,5 81,9 0 0 191 0,6 998,4
4 La Cruz 04-05-2026 00:45 5,4 82 0 0 191 0,6 998,5
3 La Cruz 04-05-2026 00:30 5,4 79,2 0 0 191 0,6 998,6
2 La Cruz 04-05-2026 00:15 6,4 81 0 0 191 0,6 998,5
1 La Cruz 04-05-2026 00:00 6,3 76,7 0 0 191 0,6 998,7